Weather History for Morgantown, WV

Change the Weather History Date:

Wednesday, March 21, 2012

  Actual Average Record
Temperature  
Mean Temperature 69 °F 44 °F  
Max Temperature 80 °F 54 °F 83 °F (1948)
Min Temperature 57 °F 34 °F 7 °F (1965)
Degree Days  
Heating Degree Days 0 21  
Month to date heating degree days 260 517  
Since 1 July heating degree days 3568 4406  
Cooling Degree Days 4 0  
Month to date cooling degree days 12 0  
Year to date cooling degree days 12 0  
Growing Degree Days 18 (Base 50)    
Moisture  
Dew Point 54 °F    
Average Humidity 60    
Maximum Humidity 80    
Minimum Humidity 40    
Precipitation  
Precipitation 0.00 in 0.13 in 0.95 in (1961)
Month to date precipitation 1.61 2.43  
Year to date precipitation 6.84 7.84  
Sea Level Pressure  
Sea Level Pressure 30.20 in    
Wind  
Wind Speed 4 mph (East)    
Max Wind Speed 13 mph    
Max Gust Speed 16 mph    
Visibility 10 miles    
Events      
T = Trace of Precipitation, MM = Missing Value Source: NWS Daily Summary

Daily Weather History Graph

Daily Weather History Graph

Search for Another Location

Airport:

Trip Planner

Search our weather history database for the weather conditions in past years. The results will help you decide how hot, cold, wet, or windy it might be!

Date:

Astronomy

Mar. 21, 2012 Rise Set
Actual Time 7:20 AM EDT 7:33 PM EDT
Civil Twilight 6:53 AM EDT 8:00 PM EDT
Nautical Twilight 6:22 AM EDT 8:31 PM EDT
Astronomical Twilight 5:50 AM EDT 9:03 PM EDT
Moon 6:30 AM EDT (3/21) 6:58 PM EDT (3/21)
Length of Visible Light 13h 06m
Length of Day
12h 12m
Waning Crescent, 1% of the Moon is Illuminated
Mar 21
Waning Crescent
Mar 22
New
Mar 30
First Quarter
Apr 6
Full
Apr 13
Last Quarter

Hourly Weather History & Observations

Time (EDT) Temp. Dew Point Humidity Pressure Visibility Wind Dir Wind Speed Gust Speed Precip Events Conditions
12:53 AM 64.9 °F 53.1 °F 65% 30.21 in 10.0 mi SE 5.8 mph - N/A   Clear
1:53 AM 64.9 °F 54.0 °F 68% 30.21 in 10.0 mi Calm Calm - N/A   Clear
2:53 AM 63.0 °F 54.0 °F 72% 30.21 in 10.0 mi ESE 4.6 mph - N/A   Clear
3:53 AM 62.1 °F 54.0 °F 75% 30.21 in 10.0 mi ESE 4.6 mph - N/A   Clear
4:53 AM 62.1 °F 54.0 °F 75% 30.20 in 10.0 mi ESE 3.5 mph - N/A   Clear
5:53 AM 60.1 °F 54.0 °F 80% 30.21 in 10.0 mi East 3.5 mph - N/A   Clear
6:53 AM 60.1 °F 54.0 °F 80% 30.22 in 10.0 mi Calm Calm - N/A   Clear
7:53 AM 59.0 °F 54.0 °F 83% 30.24 in 10.0 mi Calm Calm - N/A   Clear
8:53 AM 64.0 °F 55.0 °F 73% 30.24 in 10.0 mi Calm Calm - N/A   Clear
9:53 AM 66.9 °F 55.0 °F 66% 30.25 in 10.0 mi East 6.9 mph - N/A   Clear
10:53 AM 69.1 °F 55.0 °F 61% 30.25 in 10.0 mi ESE 9.2 mph - N/A   Clear
11:53 AM 72.0 °F 55.0 °F 55% 30.24 in 10.0 mi ESE 8.1 mph - N/A   Clear
12:53 PM 75.0 °F 55.0 °F 50% 30.23 in 10.0 mi Calm Calm - N/A   Clear
1:53 PM 77.0 °F 51.1 °F 40% 30.20 in 10.0 mi Variable 3.5 mph - N/A   Clear
2:53 PM 77.0 °F 51.1 °F 40% 30.16 in 10.0 mi East 4.6 mph - N/A   Partly Cloudy
3:53 PM 78.1 °F 55.0 °F 45% 30.14 in 10.0 mi North 9.2 mph - N/A   Scattered Clouds
4:53 PM 78.1 °F 54.0 °F 43% 30.13 in 10.0 mi ENE 9.2 mph - N/A   Partly Cloudy
5:53 PM 75.9 °F 54.0 °F 46% 30.13 in 10.0 mi East 9.2 mph - N/A   Partly Cloudy
6:53 PM 73.9 °F 54.0 °F 50% 30.14 in 10.0 mi Variable 5.8 mph - N/A   Clear
7:53 PM 70.0 °F 55.0 °F 59% 30.17 in 10.0 mi ENE 4.6 mph - N/A   Clear
8:53 PM 68.0 °F 55.9 °F 65% 30.18 in 10.0 mi ENE 4.6 mph - N/A   Clear
9:53 PM 66.2 °F 55.4 °F 68% 30.21 in 10.0 mi Calm Calm - N/A   Clear
10:53 PM 64.0 °F 55.0 °F 73% 30.21 in 10.0 mi East 4.6 mph - N/A   Clear
11:53 PM 64.0 °F 54.0 °F 70% 30.20 in 10.0 mi ESE 3.5 mph - N/A   Clear